Weather History for KHRI - March, 2014

Change the Weather History Date:

Wednesday, March 26, 2014

  Actual Average Record
Temperature  
Mean Temperature 49 °F -  
Max Temperature 60 °F 58 °F 82 °F (1960)
Min Temperature 39 °F 36 °F 20 °F (1955)
Degree Days  
Heating Degree Days 16    
Moisture  
Dew Point 39 °F    
Average Humidity 72    
Maximum Humidity 90    
Minimum Humidity 41    
Precipitation  
Precipitation 0.14 in - - ()
Sea Level Pressure  
Sea Level Pressure 29.59 in    
Wind  
Wind Speed 5 mph (South)    
Max Wind Speed 12 mph    
Max Gust Speed -    
Visibility 10 miles    
Events Rain    
Averages and records for this station are not official NWS values.
T = Trace of Precipitation, MM = Missing Value Source: NWS Daily Summary

Daily Weather History Graph

Daily Weather History Graph

Search for Another Location

Airport or City:

Trip Planner

Search our weather history database for the weather conditions in past years. The results will help you decide how hot, cold, wet, or windy it might be!

Date:

Astronomy

Mar. 26, 2014 Rise Set
Actual Time 6:48 AM PDT 7:17 PM PDT
Civil Twilight 6:18 AM PDT 7:47 PM PDT
Nautical Twilight 5:43 AM PDT 8:23 PM PDT
Astronomical Twilight 5:06 AM PDT 8:59 PM PDT
Moon 4:13 AM PDT 2:49 PM PDT
Length of Visible Light 13h 29m
Length of Day
12h 29m
Waning Crescent, 21% of the Moon is Illuminated
Mar 26
Waning Crescent
Mar 30
New
Apr 7
First Quarter
Apr 15
Full
Apr 22
Last Quarter

Hourly Weather History & Observations

Time (PDT) Temp. Windchill Dew Point Humidity Pressure Visibility Wind Dir Wind Speed Gust Speed Precip Events Conditions
12:53 AM 39.9 °F 37.8 °F 36.0 °F 86% 29.67 in 10.0 mi East 3.5 mph - N/A   Clear
1:53 AM 39.9 °F 35.8 °F 36.0 °F 86% 29.66 in 10.0 mi South 5.8 mph - N/A   Mostly Cloudy
2:53 AM 41.0 °F 37.1 °F 37.0 °F 86% 29.66 in 10.0 mi South 5.8 mph - N/A   Partly Cloudy
3:53 AM 42.1 °F 38.4 °F 37.0 °F 82% 29.65 in 10.0 mi South 5.8 mph - N/A   Mostly Cloudy
4:53 AM 41.0 °F 38.0 °F 36.0 °F 82% 29.64 in 10.0 mi South 4.6 mph - N/A   Mostly Cloudy
5:53 AM 39.9 °F 36.7 °F 36.0 °F 86% 29.63 in 10.0 mi South 4.6 mph - N/A   Scattered Clouds
6:53 AM 39.9 °F 35.1 °F 37.0 °F 89% 29.62 in 10.0 mi South 6.9 mph - N/A   Overcast
7:53 AM 41.0 °F 39.0 °F 37.9 °F 89% 29.62 in 10.0 mi ESE 3.5 mph - N/A   Scattered Clouds
8:53 AM 46.0 °F 44.8 °F 39.9 °F 79% 29.62 in 10.0 mi SE 3.5 mph - N/A   Mostly Cloudy
9:53 AM 50.0 °F - 39.0 °F 66% 29.62 in 10.0 mi NNE 3.5 mph - N/A   Overcast
10:53 AM 52.0 °F - 37.0 °F 57% 29.61 in 10.0 mi WNW 3.5 mph - N/A   Scattered Clouds
11:53 AM 54.0 °F - 37.9 °F 55% 29.60 in 10.0 mi Variable 4.6 mph - N/A   Clear
12:53 PM 57.0 °F - 37.0 °F 47% 29.58 in 10.0 mi Variable 4.6 mph - N/A   Mostly Cloudy
1:53 PM 59.0 °F - 37.9 °F 46% 29.55 in 10.0 mi SSW 5.8 mph - N/A   Partly Cloudy
2:53 PM 57.9 °F - 37.0 °F 46% 29.52 in 10.0 mi South 5.8 mph - N/A   Partly Cloudy
3:53 PM 59.0 °F - 36.0 °F 42% 29.51 in 10.0 mi Calm Calm - 0.00 in   Clear
4:53 PM 59.0 °F - 35.1 °F 41% 29.50 in 10.0 mi Calm Calm - N/A   Clear
5:53 PM 57.9 °F - 37.0 °F 46% 29.51 in 10.0 mi SSW 6.9 mph - N/A   Mostly Cloudy
6:53 PM 50.0 °F - 42.1 °F 74% 29.53 in 10.0 mi South 11.5 mph - 0.00 in Rain Light Rain
7:17 PM 46.9 °F - 44.1 °F 90% 29.56 in 4.0 mi West 10.4 mph - 0.11 in Rain Heavy Rain
7:53 PM 46.0 °F - 43.0 °F 89% 29.55 in 10.0 mi Calm Calm - 0.14 in Rain Light Rain
8:53 PM 46.0 °F 41.4 °F 42.1 °F 86% 29.57 in 10.0 mi South 9.2 mph - 0.00 in   Mostly Cloudy
9:53 PM 46.9 °F - 43.0 °F 86% 29.57 in 10.0 mi South 6.9 mph - N/A   Overcast
10:53 PM 46.0 °F 42.5 °F 42.1 °F 86% 29.58 in 10.0 mi South 6.9 mph - N/A   Overcast
11:53 PM 46.0 °F - 41.0 °F 83% 29.60 in 10.0 mi Calm Calm - N/A   Overcast